Location: Dompnac
(44.5644°N, 4.1026°E)
Time: 11:43:06
(UTC+00:00)

Okean 2 - Pass Details

Date: 19 September 2020
Orbit: 559 x 577 km, 82.5° (Epoch: 29 October)

Event Time Altitude Azimuth Distance (km) Brightness Sun altitude
Rises 18:30:14 0° 349° (N) 2,803 7.2 -8.6°
Reaches altitude 10° 18:32:27 10° 348° (NNW) 1,898 6.4 -9.0°
Maximum altitude 18:36:37 73° 264° (W) 608 3.7 -9.8°
Drops below altitude 10° 18:40:44 10° 180° (S) 1,874 5.9 -10.5°
Sets 18:42:54 0° 178° (S) 2,765 6.8 -10.9°
